This demonstration page uses our WeatherBlox Daily Observations layout. Learn more.

Left ArrowRight Arrow

Hourly Observations for September 3, 2020

Temp ( °F °C ) Dew Point ( °F °C ) Humidity (%) Winds ( mph kmh ) Pressure ( in mb ) Visibility ( mi km ) Precip ( " mm )
12:15 am 00:15 Clear 74 23.2 49 9.5 42 42 S 15 24 29.72 1006 10 16 0.00 0.00
12:35 am 00:35 Clear 72 22.4 50 10 45 45 S 14 22 29.72 1007 10 16 0.00 0.00
12:55 am 00:55 Clear 72 22.1 52 10.9 49 49 S 8 13 29.71 1006 10 16 0.00 0.00
1:15 am 01:15 Clear 74 23.5 52 11.3 46 46 SSW 16 26 29.69 1006 10 16 0.00 0.00
1:35 am 01:35 Clear 74 23.5 53 11.5 47 47 SSW 17 28 29.68 1005 10 16 0.00 0.00
1:55 am 01:55 Clear 73 23 53 11.6 49 49 SSW 14 22 29.70 1006 10 16 0.00 0.00
2:15 am 02:15 Clear 73 23 53 11.7 49 49 SSW 15 24 29.69 1005 10 16 0.00 0.00
2:35 am 02:35 Clear 73 22.6 53 11.8 51 51 SSW 17 28 29.69 1005 10 16 0.00 0.00
2:55 am 02:55 Clear 72 22 54 12 53 53 SW 15 24 29.71 1006 10 16 0.00 0.00
3:15 am 03:15 Clear 71 21.6 54 12.1 55 55 SW 14 22 29.71 1006 10 16 0.00 0.00
3:35 am 03:35 Clear 69 20.7 53 11.9 57 57 WSW 15 24 29.74 1007 10 16 0.00 0.00
3:55 am 03:55 Clear 67 19.6 53 11.6 60 60 NW 9 15 29.80 1009 10 16 0.00 0.00
4:15 am 04:15 Clear 63 17.4 54 12 71 71 NW 8 13 29.83 1010 10 16 0.00 0.00
4:35 am 04:35 Clear 65 18.6 51 10.3 59 59 N 13 20 29.83 1010 10 16 0.00 0.00
4:55 am 04:55 Clear 67 19.5 47 8.3 49 49 N 10 17 29.84 1010 10 16 0.00 0.00
5:15 am 05:15 Clear 66 18.9 47 8.1 50 50 N 9 15 29.86 1011 10 16 0.00 0.00
5:35 am 05:35 Clear 64 17.9 47 8.5 54 54 N 9 15 29.89 1012 10 16 0.00 0.00
5:55 am 05:55 Clear 64 17.8 47 8.5 55 55 N 8 13 29.90 1013 10 16 0.00 0.00
6:15 am 06:15 Clear 64 17.6 47 8.6 56 56 N 12 19 29.91 1013 10 16 0.00 0.00
6:35 am 06:35 Clear 64 17.5 47 8.4 55 55 N 13 20 29.93 1014 10 16 0.00 0.00
6:55 am 06:55 Clear 62 16.7 47 8.1 57 57 N 10 17 29.95 1014 10 16 0.00 0.00
7:15 am 07:15 Sunny 62 16.5 46 7.6 56 56 N 12 19 29.97 1015 10 16 0.00 0.00
7:35 am 07:35 Sunny 61 16.1 45 7.2 56 56 N 15 24 29.99 1015 10 16 0.00 0.00
7:55 am 07:55 Sunny 61 16.1 43 6.2 52 52 N 14 22 30.01 1016 10 16 0.00 0.00
8:15 am 08:15 Sunny 61 16.2 43 6.1 51 51 N 13 20 30.02 1016 10 16 0.00 0.00
8:35 am 08:35 Sunny 62 16.5 43 6.1 50 50 N 16 26 30.02 1017 10 16 0.00 0.00
8:55 am 08:55 Sunny 62 16.8 43 6.1 49 49 N 14 22 30.04 1017 10 16 0.00 0.00
9:15 am 09:15 Sunny 63 17.2 44 6.5 50 50 N 17 28 30.05 1017 10 16 0.00 0.00
9:35 am 09:35 Sunny 64 17.7 44 6.9 49 49 N 14 22 30.05 1018 10 16 0.00 0.00
9:55 am 09:55 Sunny 65 18.1 43 6 45 45 N 16 26 30.06 1018 10 16 0.00 0.00
10:15 am 10:15 Sunny 66 18.8 42 5.7 42 42 N 16 26 30.06 1018 10 16 0.00 0.00
10:35 am 10:35 Sunny 67 19.2 40 4.6 38 38 N 16 26 30.08 1019 10 16 0.00 0.00
10:55 am 10:55 Sunny 67 19.6 41 4.8 38 38 N 14 22 30.08 1018 10 16 0.00 0.00
11:15 am 11:15 Sunny 68 20.2 39 3.8 34 34 N 16 26 30.08 1019 10 16 0.00 0.00
11:35 am 11:35 Sunny 70 21 40 4.3 34 34 N 16 26 30.07 1018 10 16 0.00 0.00
11:55 am 11:55 Sunny 70 21.2 39 3.8 32 32 N 14 22 30.07 1018 10 16 0.00 0.00
12:15 pm 12:15 Sunny 72 22 39 4.1 31 31 N 15 24 30.06 1018 10 16 0.00 0.00
12:35 pm 12:35 Sunny 72 22.1 38 3.6 30 30 N 15 24 30.06 1018 10 16 0.00 0.00
12:55 pm 12:55 Sunny 73 22.6 38 3.5 29 29 NNE 14 22 30.05 1018 10 16 0.00 0.00
1:15 pm 13:15 Sunny 74 23.1 39 3.9 29 29 N 14 22 30.04 1017 10 16 0.00 0.00
1:35 pm 13:35 Sunny 73 23 39 3.8 29 29 N 9 15 30.04 1017 10 16 0.00 0.00
1:55 pm 13:55 Sunny 75 23.7 38 3.1 26 26 NNW 9 15 30.03 1017 10 16 0.00 0.00
2:15 pm 14:15 Sunny 75 24.1 40 4.4 28 28 N 7 11 30.02 1016 10 16 0.00 0.00
2:35 pm 14:35 Sunny 77 25.1 40 4.3 26 26 N 9 15 30.01 1016 10 16 0.00 0.00
2:55 pm 14:55 Sunny 77 24.8 38 3.5 25 25 N 7 11 30.01 1016 10 16 0.00 0.00
3:15 pm 15:15 Sunny 77 25.2 37 3 24 24 NNW 7 11 30.00 1016 10 16 0.00 0.00
3:35 pm 15:35 Sunny 78 25.3 35 1.9 22 22 N 3 6 30.00 1016 10 16 0.00 0.00
3:55 pm 15:55 Sunny 78 25.5 37 2.6 23 23 NNW 8 13 29.99 1015 10 16 0.00 0.00
4:15 pm 16:15 Sunny 78 25.5 38 3.2 24 24 N 5 7 29.99 1015 10 16 0.00 0.00
4:35 pm 16:35 Sunny 78 25.4 37 2.6 23 23 NW 6 9 29.98 1015 10 16 0.00 0.00
4:55 pm 16:55 Sunny 78 25.6 38 3.2 23 23 Calm 29.97 1015 10 16 0.00 0.00
5:15 pm 17:15 Sunny 78 25.7 38 3.2 23 23 Calm 29.97 1015 10 16 0.00 0.00
5:35 pm 17:35 Sunny 78 25.6 37 3 23 23 Calm 29.97 1015 10 16 0.00 0.00
5:55 pm 17:55 Sunny 78 25.6 38 3.1 23 23 Calm 29.97 1015 10 16 0.00 0.00
6:15 pm 18:15 Sunny 78 25.3 37 3 24 24 Calm 29.98 1015 10 16 0.00 0.00
6:35 pm 18:35 Sunny 77 25.1 38 3.5 25 25 Calm 29.97 1015 10 16 0.00 0.00
6:55 pm 18:55 Sunny 77 25.2 38 3.1 24 24 Calm 29.98 1015 10 16 0.00 0.00
7:15 pm 19:15 Sunny 76 24.7 38 3.2 25 25 Calm 29.97 1015 10 16 0.00 0.00
7:35 pm 19:35 Sunny 76 24.5 39 3.7 26 26 Calm 29.98 1015 10 16 0.00 0.00
7:55 pm 19:55 Sunny 74 23.6 40 4.5 29 29 Calm 29.99 1016 7 11 0.00 0.00
8:15 pm 20:15 Clear 70 20.9 45 7.4 42 42 SSE 5 7 30.01 1016 10 16 0.00 0.00
8:35 pm 20:35 Clear 68 20.2 40 4.3 35 35 SE 3 6 30.02 1017 7 11 0.00 0.00
8:55 pm 20:55 Clear 66 19 44 6.5 44 44 SE 5 7 30.03 1017 10 16 0.00 0.00
9:15 pm 21:15 Clear 65 18.1 46 7.9 52 52 ESE 6 9 30.05 1018 10 16 0.00 0.00
9:35 pm 21:35 Clear 67 19.6 43 6 41 41 SE 8 13 30.04 1017 10 16 0.00 0.00
9:55 pm 21:55 Clear 65 18.6 44 6.7 46 46 SE 5 7 30.05 1018 10 16 0.00 0.00
10:15 pm 22:15 Clear 63 17.3 44 6.9 51 51 SSE 5 7 30.08 1018 7 11 0.00 0.00
10:35 pm 22:35 Clear 61 16.3 46 8 58 58 S 6 9 30.08 1019 7 11 0.00 0.00
10:55 pm 22:55 Hazy 59 14.9 48 8.9 68 68 SSE 5 7 30.10 1019 5 8 0.00 0.00
11:15 pm 23:15 Clear 58 14.5 47 8.5 67 67 Calm 30.12 1020 7 11 0.00 0.00
11:35 pm 23:35 Clear 59 14.8 47 8.1 64 64 Calm 30.12 1020 10 16 0.00 0.00
11:55 pm 23:55 Clear 59 15 46 7.8 62 62 Calm 30.12 1020 10 16 0.00 0.00

Powered by AerisWeather